Regional Weather Roundup
Issued by NWS Kansas City/Pleasant Hill, MO

Home | Current Version | Previous Version | Graphics & Text | Print | Product List | Glossary Off
Versions: 1 2 3 4 5 6 7 8 9 10 11 12 13 14 15 16 17 18 19 20 21 22 23 24 25 26 27

000
ASUS43 KEAX 170110
RWREAX

WEATHER ROUNDUP FOR EASTERN KANSAS AND NORTHWEST MISSOURI
NATIONAL WEATHER SERVICE KANSAS CITY/PLEASANT HILL MO
800 PM CDT MON OCT 16 2017

KSZ040-057-103>105-MOZ028-029-037-043-170200-
...KANSAS CITY METROPOLITAN AREA...

CITY           SKY/WX    TMP DP  RH WIND       PRES   REMARKS
K.C. INTL      PTCLDY    50  42  74 S10       30.23S
K.C. DOWNTOWN  CLEAR     62  42  47 S8        30.23S
LEES SUMMIT    CLEAR     58  42  55 S9        30.26S
OLATHE - IXD   CLEAR     52  42  69 S7        30.26R
OLATHE - OJC   CLEAR     55  41  59 S6        30.25S
LAWRENCE       CLEAR     52  43  71 SE6       30.24R

$$

MOZ001>008-011>017-020>025-030>033-038>040-044>046-053-054-170200-
...NORTHERN AND CENTRAL MISSOURI...

CITY           SKY/WX    TMP DP  RH WIND       PRES   REMARKS
ST. JOSEPH     CLEAR     56  43  61 S6        30.21R
MOSBY          CLEAR     59  41  51 S3        30.24S
WARRENSBURG    CLEAR     54  41  62 S7        30.27S
WHITEMAN AFB   CLEAR     52  42  69 S6        30.23S
CLINTON        CLEAR     50  45  81 MISG      30.29R
SEDALIA        CLEAR     57  43  59 S6        30.29R
WARSAW         NOT AVBL
CHILLICOTHE      N/A     53  45  74 CALM      30.25R
KIRKSVILLE     CLEAR     52  40  63 S7        30.25R

$$

MOZ041-047>049-056>058-063>065-088>090-097-170200-
...EASTERN AND SOUTHERN MISSOURI...

CITY           SKY/WX    TMP DP  RH WIND       PRES   REMARKS
ST. LOUIS INTL CLEAR     56  42  59 S5        30.29R
SPIRIT OF STL  CLEAR     50  46  86 CALM      30.28R
COLUMBIA       CLEAR     54  42  64 S6        30.28R
JEFFERSON CITY CLEAR     52  42  69 CALM      30.28R
ROLLA          CLEAR     49  41  74 CALM      30.30S
OSAGE BEACH    CLEAR     52  44  74 CALM      30.30R
SPRINGFIELD    CLEAR     50  41  71 CALM      30.29R
BRANSON        CLEAR     54  36  50 CALM      30.31R
JOPLIN         CLEAR     51  45  79 CALM      30.30R
WEST PLAINS    CLEAR     49  39  68 CALM      30.32R

$$

IAZ060-094-KSZ022-034>040-054-083-096-NEZ052-066-093-170200-
...KANSAS...SOUTHEAST NEBRASKA AND IOWA...

CITY           SKY/WX    TMP DP  RH WIND       PRES   REMARKS
TOPEKA         CLEAR     58  43  57 S3        30.22S
MANHATTAN      CLEAR     56  41  57 S6        30.20S
EMPORIA        CLEAR     53  40  61 S8        30.24S
CHANUTE        CLEAR     51  43  74 S6        30.28S
WICHITA        PTCLDY    58  41  53 S12       30.24R
OMAHA          PTCLDY    64  40  41 S10       30.11S
LINCOLN        CLEAR     56  40  55 S10       30.13S
FALLS CITY     CLEAR     60  39  45 S8        30.18R
LAMONI         CLEAR     58  40  51 S10       30.19S
DES MOINES     PTCLDY    58  39  49 S9        30.15S

$$





USA.gov is the U.S. government's official web portal to all federal, state and local government web resources and services.